Flag for Aruba Weather past 2 weeks in Oranjestad, Aruba

Now
86 °F

Scattered clouds.


Feels Like: 97 °F
Forecast: 79 / 89 °F
Wind: 23 mph from East

Location: Queen Beatrix Airport - Aruba

Current Time: Jul 30, 2015 at 10:44:33 AM

Latest Report: Jul 30, 2015 at 10:00 AM


Visibility: N/A

Pressure: 29.95 "Hg

Humidity: 75%

Dew point: 77 °F

Location of OranjestadLocation

Historic Weather in Oranjestad — Graph

°F

Oranjestad temperature yesterday

Maximum temperature yesterday: 90 °F (at 12:00 PM)
Minimum temperature yesterday: 81 °F (at 4:00 AM)
Average temperature yesterday: 85 °F

Past Weeks' High & Low Weather Summary

 TemperatureHumidityPressure
High91 °F (Jul 21, 1:00 PM)94% (Jul 21, 3:00 PM)30.01 "Hg (Jul 21, 3:00 PM)
Low79 °F (Jul 21, 3:00 PM)23% (Jul 17, 6:00 AM)29.77 "Hg (Jul 26, 4:00 PM)
Average84 °F78%29.91 "Hg
* Reported Jul 15 9:00 AM — Jul 30 9:00 AM, Oranjestad, Weather by CustomWeather, © 2015

Note: Actual official high and low records may vary slightly from our data, if they occured in-between our weather recording intervals... More about our weather records

Advertising

Oranjestad weather history for previous 24 hours

 ConditionsComfort  
Time TempWeatherWind HumidityBarometerVisibility
9:00 AM
Thu, Jul 30
84 °FScattered clouds.23 mph79%29.92 "HgN/A
8:00 AM82 °FScattered clouds.17 mph84%29.92 "HgN/A
7:00 AM81 °FPassing clouds.17 mph84%29.92 "HgN/A
6:00 AM79 °FPassing clouds.15 mph89%29.89 "HgN/A
5:00 AM81 °FPassing clouds.13 mph84%29.89 "HgN/A
4:00 AM79 °FPassing clouds.10 mph89%29.89 "HgN/A
2:00 AM81 °FPassing clouds.14 mph84%29.92 "HgN/A
1:00 AM82 °FPassing clouds.15 mph79%29.92 "HgN/A
12:00 AM82 °FPassing clouds.14 mph79%29.95 "HgN/A
11:00 PM
Wed, Jul 29
82 °FPassing clouds.16 mph79%29.95 "HgN/A
10:00 PM82 °FPassing clouds.18 mph84%29.95 "HgN/A
9:00 PM82 °FPassing clouds.20 mph84%29.92 "HgN/A
8:00 PM82 °FPassing clouds.18 mph84%29.89 "HgN/A
7:00 PM82 °FPassing clouds.20 mph84%29.86 "HgN/A
6:00 PM84 °FPassing clouds.20 mph79%29.83 "HgN/A
5:00 PM88 °FPassing clouds.21 mph70%29.83 "HgN/A
4:00 PM90 °FPassing clouds.22 mph71%29.86 "HgN/A
3:00 PM90 °FPassing clouds.22 mph71%29.86 "HgN/A
2:00 PM90 °FPassing clouds.21 mph71%29.89 "HgN/A
1:00 PM90 °FPassing clouds.24 mph71%29.89 "HgN/A
12:00 PM90 °FPassing clouds.26 mph71%29.92 "HgN/A
11:00 AM88 °FPassing clouds.26 mph70%29.92 "HgN/A
10:00 AM88 °FScattered clouds.26 mph70%29.95 "HgN/A
Weather by CustomWeather, © 2015

See weather overviewHow to use our weather pages